D3121 Weather Reports


Display with metric or nautical units.
time (UTC)temp
F
wind
direction
speed
MPH
gust
MPH
rain 1hr
in
rain 24hr
in
rain mn
in
humidity
%
barometer
mb
20260906223317 64 0.0 0.0 0.00 0.39 0.20 59 1015.4
20260906222337 64 0.0 1.0 0.00 0.39 0.20 58 1015.6
20260906221317 65 0.0 0.0 0.00 0.39 0.20 57 1015.6
20260906220317 65 23 1.0 2.0 0.00 0.39 0.20 55 1015.6
20260906215317 65 23 3.0 5.0 0.00 0.39 0.20 55 1015.6
20260906214317 66 338 3.0 9.0 0.00 0.39 0.20 53 1015.6
20260906213338 66 0 4.0 5.0 0.00 0.39 0.20 53 1015.6
20260906212317 66 0 6.0 8.0 0.00 0.39 0.20 51 1015.6
20260906211317 66 0 4.0 6.0 0.00 0.39 0.20 51 1015.4
20260906210337 65 23 4.0 5.0 0.00 0.39 0.20 54 1015.5
20260906205317 65 0 6.0 8.0 0.00 0.39 0.20 51 1015.5
20260906204317 66 338 8.0 11.0 0.00 0.39 0.20 50 1015.6
20260906203337 66 0 6.0 13.0 0.00 0.39 0.20 52 1015.3
20260906202317 66 23 5.0 8.0 0.00 0.39 0.20 55 1015.4
20260906201315 66 0 6.0 10.0 0.00 0.39 0.20 55 1015.3
20260906200337 66 293 4.0 7.0 0.00 0.39 0.20 56 1015.2
20260906195317 66 0 7.0 9.0 0.00 0.39 0.20 57 1015.2
20260906194317 66 23 6.0 13.0 0.00 0.39 0.20 59 1015.2
20260906193317 66 23 2.0 4.0 0.00 0.39 0.20 59 1015.0
20260906192357 66 0 5.0 8.0 0.00 0.39 0.20 59 1015.2
20260906191317 66 0 5.0 11.0 0.00 0.39 0.20 61 1015.0
20260906190317 66 23 4.0 6.0 0.00 0.39 0.20 60 1015.2
20260906185337 66 0 7.0 13.0 0.00 0.39 0.20 61 1015.2
20260906184317 66 0 9.0 12.0 0.00 0.39 0.20 63 1015.2
20260906183317 65 0 6.0 11.0 0.00 0.39 0.20 63 1015.3
20260906182357 65 0 7.0 9.0 0.00 0.39 0.20 65 1015.4
20260906181317 65 23 2.0 4.0 0.00 0.39 0.20 65 1015.4
20260906180317 65 45 6.0 9.0 0.00 0.39 0.20 62 1015.5
20260906175337 65 0 5.0 8.0 0.00 0.39 0.20 61 1015.5
20260906174317 65 0 7.0 13.0 0.00 0.39 0.20 63 1015.6
20260906173317 65 23 8.0 13.0 0.00 0.39 0.20 65 1015.6
20260906172337 64 0 5.0 8.0 0.00 0.39 0.20 66 1015.7
20260906171317 64 23 5.0 9.0 0.00 0.39 0.20 67 1015.8
20260906170317 64 0 5.0 8.0 0.00 0.39 0.20 69 1015.8
20260906165317 64 45 6.0 8.0 0.00 0.39 0.20 66 1015.9
20260906164317 64 0 6.0 11.0 0.00 0.39 0.20 71 1015.9
20260906163317 64 0 9.0 13.0 0.00 0.39 0.20 74 1016.0
20260906162337 64 23 8.0 11.0 0.00 0.39 0.20 75 1016.0
20260906161317 63 0 7.0 10.0 0.00 0.39 0.20 75 1016.0
20260906160317 63 23 6.0 9.0 0.00 0.39 0.20 76 1016.0
20260906155317 62 0 9.0 15.0 0.00 0.39 0.20 79 1016.0
20260906154317 62 23 5.0 9.0 0.00 0.39 0.20 80 1016.2
20260906153317 61 0 4.0 9.0 0.00 0.39 0.20 83 1016.2
20260906152337 61 0 6.0 7.0 0.00 0.39 0.20 80 1016.2
20260906151317 61 0 4.0 6.0 0.00 0.39 0.20 84 1016.2
20260906150317 61 0 7.0 12.0 0.00 0.39 0.20 86 1016.4
20260906145317 61 0 6.0 9.0 0.00 0.39 0.20 83 1016.3
20260906144317 61 180 2.0 6.0 0.00 0.39 0.20 84 1016.3
20260906143317 60 0 5.0 7.0 0.00 0.39 0.20 85 1016.2
20260906142337 60 0 4.0 6.0 0.00 0.39 0.20 88 1016.1
20260906141317 59 23 4.0 6.0 0.00 0.39 0.20 89 1016.1
20260906140317 59 23 2.0 4.0 0.00 0.39 0.20 91 1016.1
20260906135317 59 23 4.0 5.0 0.00 0.39 0.20 91 1015.9
20260906134317 59 23 3.0 4.0 0.00 0.39 0.20 92 1015.9
20260906133317 58 113 1.0 2.0 0.00 0.39 0.20 93 1015.9
20260906132317 59 23 1.0 2.0 0.00 0.39 0.20 92 1016.2
20260906131337 59 0.0 0.0 0.00 0.39 0.20 92 1016.2
20260906130317 59 0 3.0 4.0 0.00 0.39 0.20 93 1016.1
20260906125337 58 23 2.0 3.0 0.00 0.39 0.20 94 1015.9
20260906124317 57 0.0 0.0 0.01 0.39 0.20 94 1015.9
20260906123317 57 23 1.0 2.0 0.01 0.39 0.20 93 1015.8
20260906122317 57 23 1.0 2.0 0.01 0.39 0.20 94 1015.7
20260906121317 57 23 1.0 1.0 0.01 0.39 0.20 95 1015.8
20260906120317 56 0.0 0.0 0.01 0.39 0.20 96 1015.8
20260906115317 56 0.0 2.0 0.03 0.39 0.20 96 1015.9
20260906114317 56 23 5.0 6.0 0.02 0.38 0.19 96 1015.9
20260906113317 56 0 2.0 6.0 0.02 0.38 0.19 96 1015.7
20260906112317 56 338 1.0 2.0 0.05 0.38 0.19 96 1015.6
20260906111317 56 23 3.0 4.0 0.05 0.38 0.19 96 1015.6
20260906110317 56 338 2.0 3.0 0.05 0.38 0.19 95 1015.5
20260906105317 56 45 3.0 4.0 0.04 0.36 0.17 96 1015.3
20260906104317 56 0.0 0.0 0.04 0.36 0.17 95 1015.2
20260906103317 56 0.0 0.0 0.04 0.36 0.17 96 1015.2
20260906102317 56 293 1.0 2.0 0.02 0.33 0.14 95 1015.3
20260906101317 56 0.0 0.0 0.02 0.33 0.14 95 1015.1
20260906100317 56 0.0 0.0 0.02 0.33 0.14 95 1015.0
20260906095317 56 0.0 0.0 0.01 0.32 0.13 95 1014.9
20260906094317 57 0 2.0 3.0 0.01 0.32 0.13 94 1014.8
20260906093317 57 0 1.0 2.0 0.01 0.32 0.13 94 1014.8
20260906092317 57 0 2.0 3.0 0.00 0.31 0.12 94 1014.8
20260906091317 57 0 3.0 4.0 0.00 0.31 0.12 92 1014.6
20260906090317 57 45 2.0 3.0 0.01 0.31 0.12 92 1014.4
20260906085317 57 68 1.0 1.0 0.01 0.31 0.12 93 1014.3
20260906084317 58 23 3.0 4.0 0.01 0.31 0.12 93 1014.4
20260906083337 58 45 2.0 3.0 0.01 0.31 0.12 93 1014.4
20260906082317 58 0.0 0.0 0.01 0.31 0.12 93 1014.4
20260906081317 58 0.0 0.0 0.01 0.31 0.12 93 1014.4
20260906080317 58 45 1.0 2.0 0.01 0.30 0.11 92 1014.3
20260906075317 58 113 1.0 2.0 0.01 0.30 0.11 92 1014.2
20260906074317 58 158 2.0 4.0 0.02 0.30 0.11 92 1014.2
20260906073337 59 23 2.0 3.0 0.04 0.30 0.11 93 1014.2
20260906072317 59 45 2.0 3.0 0.09 0.30 0.11 93 1014.3
20260906071317 59 113 4.0 5.0 0.11 0.30 0.11 93 1014.2
20260906070317 59 113 6.0 7.0 0.10 0.29 0.10 94 1014.1
20260906065317 58 68 2.0 3.0 0.10 0.29 0.10 96 1014.1
20260906064317 59 0 4.0 5.0 0.09 0.28 0.09 96 1014.3
20260906063337 59 90 2.0 3.0 0.07 0.26 0.07 96 1014.3
20260906062337 59 0.0 0.0 0.02 0.21 0.02 96 1014.2
20260906061317 59 0.0 0.0 0.00 0.19 0.00 96 1014.1
20260906060317 59 0.0 0.0 0.00 0.19 0.00 96 1014.0
20260906055317 59 0.0 0.0 0.00 0.19 0.00 96 1014.1
20260906054317 59 0.0 0.0 0.00 0.19 0.00 96 1014.1
20260906053317 59 0.0 0.0 0.00 0.19 0.00 96 1014.2
20260906052337 59 0.0 1.0 0.00 0.19 0.00 96 1014.1
20260906051317 59 0.0 0.0 0.00 0.19 0.00 96 1014.1
20260906050337 59 0.0 0.0 0.00 0.19 0.00 96 1014.1
20260906045317 59 0.0 0.0 0.00 0.19 0.00 96 1014.2
20260906044337 59 0.0 0.0 0.00 0.19 0.00 96 1014.1
20260906043317 59 0.0 0.0 0.00 0.19 0.00 96 1014.2
20260906042336 59 23 1.0 3.0 0.00 0.19 0.00 96 1014.1
20260906041317 59 0.0 0.0 0.00 0.19 0.00 96 1014.1
20260906040317 59 0.0 0.0 0.00 0.19 0.00 96 1014.1
20260906035316 59 0.0 0.0 0.00 0.19 0.19 95 1014.0
20260906034356 59 0.0 0.0 0.00 0.19 0.19 96 1014.0
20260906033316 59 315 2.0 4.0 0.00 0.19 0.19 96 1013.9
20260906032316 59 0.0 0.0 0.00 0.19 0.19 96 1013.9
20260906031316 59 338 2.0 3.0 0.00 0.19 0.19 95 1013.6
20260906030316 60 0.0 0.0 0.00 0.19 0.19 95 1013.6
20260906025336 60 0 3.0 4.0 0.01 0.19 0.19 95 1013.7
20260906024316 59 0.0 1.0 0.01 0.19 0.19 95 1013.6
20260906023316 59 135 1.0 1.0 0.01 0.19 0.19 95 1013.6
20260906022316 59 0.0 0.0 0.02 0.19 0.19 95 1013.6
20260906021336 59 0.0 0.0 0.02 0.19 0.19 95 1013.7
20260906020316 59 0.0 0.0 0.02 0.19 0.19 95 1013.7
20260906015316 60 0.0 0.0 0.01 0.18 0.18 95 1013.7
20260906014336 60 0.0 0.0 0.01 0.18 0.18 95 1013.8
20260906013336 60 0.0 0.0 0.01 0.18 0.18 94 1013.8
20260906012316 60 0.0 0.0 0.00 0.17 0.17 95 1013.8
20260906011316 60 0.0 0.0 0.00 0.17 0.17 94 1013.8
20260906010316 60 23 2.0 3.0 0.00 0.17 0.17 94 1013.8
20260906005316 60 158 4.0 7.0 0.01 0.17 0.17 94 1013.6
20260906004316 60 113 3.0 5.0 0.01 0.17 0.17 93 1013.4
20260906003316 60 135 5.0 7.0 0.04 0.17 0.17 93 1013.4
20260906002315 60 135 5.0 7.0 0.07 0.17 0.17 93 1013.4
20260906001316 60 68 3.0 6.0 0.09 0.17 0.17 92 1013.4
20260906000316 60 158 4.0 6.0 0.15 0.17 0.17 93 1013.1
20260905235316 60 113 2.0 5.0 0.16 0.16 0.16 93 1013.0
20260905234316 60 68 3.0 7.0 0.16 0.16 0.16 92 1012.9
20260905233315 61 45 3.0 5.0 0.13 0.13 0.13 91 1012.9
20260905232316 61 45 4.0 5.0 0.10 0.10 0.10 92 1012.8
20260905231316 62 113 5.0 9.0 0.08 0.08 0.08 91 1012.5
20260905230316 63 23 2.0 4.0 0.02 0.02 0.02 88 1012.5
20260905225356 64 113 5.0 8.0 0.00 0.00 0.00 86 1012.5
20260905224356 65 158 6.0 8.0 0.00 0.00 0.00 84 1012.3